Pensacola, FL

7:24 PM CDT on April 24, 2017 (GMT -0500)
Pensacola Regional

Weather History for KPNS - December, 2011

Change the Weather History Date:

Thursday, December 29, 2011

  Actual Average Record
Temperature  
Mean Temperature 55 °F 52 °F  
Max Temperature 66 °F 61 °F 81 °F (1974)
Min Temperature 44 °F 43 °F 14 °F (1893)
Degree Days  
Heating Degree Days 10 14  
Month to date heating degree days 236 342  
Since 1 July heating degree days 457 554  
Cooling Degree Days 0 0  
Month to date cooling degree days 13 7  
Year to date cooling degree days 2914 2603  
Growing Degree Days 4 (Base 50)    
Moisture  
Dew Point 48 °F    
Average Humidity 79    
Maximum Humidity 100    
Minimum Humidity 57    
Precipitation  
Precipitation 0.00 in 0.14 in 1.92 in (1927)
Month to date precipitation 7.70 4.28  
Year to date precipitation 48.68 65.00  
Snow  
Snow 0.00 in 0.00 in 0.00 in (2001)
Month to date snowfall 0.0 0.0  
Since 1 July snowfall 0.0 0.0  
Snow Depth 0.00 in    
Sea Level Pressure  
Sea Level Pressure 30.08 in    
Wind  
Wind Speed 3 mph (East)    
Max Wind Speed 10 mph    
Max Gust Speed 28 mph    
Visibility 10 miles    
Events      
T = Trace of Precipitation, MM = Missing Value Source: NWS Daily Summary

Daily Weather History Graph

Daily Weather History Graph

Search for Another Location

Airport or City:

Trip Planner

Search our weather history database for the weather conditions in past years. The results will help you decide how hot, cold, wet, or windy it might be!

Date:

Astronomy

Dec. 29, 2011 Rise Set
Actual Time 6:44 AM CST 4:56 PM CST
Civil Twilight 6:18 AM CST 5:23 PM CST
Nautical Twilight 5:48 AM CST 5:53 PM CST
Astronomical Twilight 5:18 AM CST 6:22 PM CST
Moon 9:59 AM CST (12/29) 10:09 PM CST (12/29)
Length of Visible Light 11h 04m
Length of Day
10h 11m
Waxing Crescent, 27% of the Moon is Illuminated
Dec 29
Waxing Crescent
Jan 1
First Quarter
Jan 9
Full
Jan 16
Last Quarter
Jan 23
New

Hourly Weather History & Observations

Time (CST) Temp. Windchill Dew Point Humidity Pressure Visibility Wind Dir Wind Speed Gust Speed Precip Events Conditions
12:53 AM 45.0 °F - 41.0 °F 86% 30.12 in 10.0 mi Calm Calm - N/A   Clear
1:53 AM 45.0 °F - 42.1 °F 90% 30.12 in 10.0 mi Calm Calm - N/A   Clear
2:53 AM 46.9 °F - 45.0 °F 93% 30.11 in 10.0 mi Calm Calm - N/A   Clear
3:53 AM 44.1 °F 41.5 °F 42.1 °F 93% 30.10 in 9.0 mi North 4.6 mph - N/A   Clear
4:53 AM 45.0 °F - 42.1 °F 90% 30.09 in 10.0 mi Calm Calm - N/A   Clear
5:53 AM 46.0 °F 43.9 °F 43.0 °F 89% 30.10 in 10.0 mi NE 4.6 mph - N/A   Clear
6:53 AM 46.0 °F 43.1 °F 43.0 °F 89% 30.13 in 10.0 mi North 5.8 mph - N/A   Mostly Cloudy
7:53 AM 50.0 °F - 43.0 °F 77% 30.14 in 10.0 mi NNE 5.8 mph - N/A   Overcast
8:53 AM 51.8 °F - 41.0 °F 67% 30.13 in 10.0 mi Calm Calm - N/A   Mostly Cloudy
9:53 AM 57.0 °F - 42.1 °F 57% 30.14 in 10.0 mi East 4.6 mph - 0.01 in   Scattered Clouds
10:53 AM 59.0 °F - 44.1 °F 58% 30.13 in 10.0 mi Calm Calm - N/A   Overcast
11:53 AM 62.1 °F - 48.0 °F 60% 30.10 in 10.0 mi SE 4.6 mph - N/A   Mostly Cloudy
12:53 PM 63.0 °F - 51.1 °F 65% 30.06 in 10.0 mi SE 6.9 mph - N/A   Clear
1:53 PM 64.0 °F - 53.1 °F 67% 30.05 in 10.0 mi East 6.9 mph - N/A   Clear
2:53 PM 64.9 °F - 53.1 °F 65% 30.05 in 10.0 mi SSE 4.6 mph - N/A   Clear
3:53 PM 64.4 °F - 53.6 °F 68% 30.03 in 10.0 mi SE 8.1 mph - N/A   Clear
4:53 PM 60.1 °F - 54.0 °F 80% 30.04 in 10.0 mi ESE 4.6 mph - N/A   Clear
5:53 PM 55.9 °F - 53.1 °F 90% 30.05 in 10.0 mi Calm Calm - N/A   Clear
6:53 PM 57.0 °F - 54.0 °F 89% 30.05 in 10.0 mi ENE 4.6 mph - N/A   Clear
7:53 PM 55.9 °F - 54.0 °F 93% 30.06 in 10.0 mi Calm Calm - N/A   Partly Cloudy
8:53 PM 54.0 °F - 53.1 °F 97% 30.05 in 8.0 mi Calm Calm - N/A   Clear
9:53 PM 53.6 °F - 51.8 °F 94% 30.05 in 9.0 mi Calm Calm - N/A   Scattered Clouds
10:53 PM 55.0 °F - 53.1 °F 93% 30.04 in 9.0 mi ENE 3.5 mph - N/A   Overcast
11:53 PM 55.0 °F - 53.1 °F 93% 30.02 in 8.0 mi Calm Calm - N/A   Scattered Clouds